Tracking 19245 objects as of 14-Aug-2018
HD Live streaming from Space Station
objects crossing your sky now

FENGYUN 1C DEB

Track FENGYUN 1C DEB now!
10-day predictions


NORAD ID: 29807
Int'l Code: 1999-025CZ
Perigee: 819.4 km
Apogee: 936.5 km
Inclination: 99.0 °
Period: 102.4 minutes
Semi major axis: 7248 km
RCS: 0.0767 m2 (small)
Launch date: May 10, 1999
Source: People's Republic of China (PRC)
Launch site: Taiyaun Space Center, China (TSC)

Note: This is SATELLITE DEBRIS
aabbcc
Your satellite tracking list
Your tracking list is empty




NASA's NSSDC Master Catalog

Two Line Element Set (TLE):
1 29807U 99025CZ  18224.75813668 -.00000011 +00000-0 +19773-4 0  9996
2 29807 098.9537 253.5749 0080779 302.8715 120.7450 14.06663230594155
Source of the keplerian elements: AFSPC